Regional Weather Roundup
Issued by NWS Cleveland, OH

Home | Current Version | Previous Version | Text Only | Print | Product List | Glossary Off
Versions: 1 2 3 4 5 6 7 8 9 10 11 12 13 14 15 16 17 18 19 20 21 22 23 24 25 26 27 28 29 30 31 32 33 34 35 36 37 38 39 40 41 42 43 44 45 46 47 48 49 50

000
ASUS41 KCLE 191002
RWRCLE
OHIO REGIONAL WEATHER ROUNDUP
NATIONAL WEATHER SERVICE CLEVELAND, OH
600 AM EDT SUN APR 19 2015

NOTE: "FAIR" INDICATES FEW OR NO CLOUDS BELOW 12,000 FEET WITH NO
SIGNIFICANT WEATHER AND/OR OBSTRUCTIONS TO VISIBILITY.

OHZ001>008-015>018-024>027-034-035-043-044-191100-
   NORTHWEST OHIO

CITY           SKY/WX    TMP DP  RH WIND       PRES   REMARKS
DEFIANCE       MOCLDY    50  32  50 E13       29.99F
FINDLAY        PTCLDY    50  34  54 NE14      29.96F
TOLEDO EXPRESS PTCLDY    47  32  56 E18G25    30.01F
TOLEDO EXEC    PTCLDY    47  32  56 E9G21     30.03F
LIMA           MOCLDY    50  38  63 NE13      29.94F
$$

OHZ009>014-019>023-028>033-038-089-191100-
   NORTHEAST OHIO

CITY           SKY/WX    TMP DP  RH WIND       PRES   REMARKS
CLE-HOPKINS    MOCLDY    50  27  40 E8        30.05F
CLE-LAKEFRONT  MOCLDY    47  40  76 NE7       30.03F
CUY CO. ARPT   NOT AVBL
LORAIN-ELYRIA  MOCLDY    45  35  68 E7        30.02F
ASHTABULA      MOCLDY    40  27  59 E5        30.09S
AKRON-CANTON   MOCLDY    50  29  44 E12       30.02F
WOOSTER        MOCLDY    49  33  54 E9        30.01F
MANSFIELD      PTCLDY    52  32  46 E9        29.99F
YOUNGSTOWN     MOCLDY    47  27  45 E10       30.05F
$$

OHZ042-051>053-060>062-070>072-077>081-191100-
  SOUTHWEST OHIO

CITY           SKY/WX    TMP DP  RH WIND       PRES   REMARKS
CINC-COVINGTON CLOUDY    64  45  49 E13       29.85F
CINC-LUNKEN    CLOUDY    59  49  69 NE7       29.86F
HAMILTON       CLOUDY    60  47  61 E5        29.88F
DAYTON         CLOUDY    59  41  51 E10       29.90F
WRIGHT-PAT AFB CLOUDY    58  41  51 NE7       29.89F
DAYTON GENERAL CLOUDY    59  43  55 E14G21    29.87F
WILMINGTON     MOCLDY    55  44  66 E10       29.89F
$$

OHZ036-037-039>041-045>050-054>059-063>069-073>076-082>088-191100-
  CENTRAL AND SOUTHEAST OHIO

CITY           SKY/WX    TMP DP  RH WIND       PRES   REMARKS
COLUMBUS       MOCLDY    59  39  47 E13G20    29.92F
OSU AIRPORT    MOCLDY    56  39  53 E8        29.93F
BOLTON FIELD   NOT AVBL
RICKENBACK AFB NOT AVBL
NEWARK         CLOUDY    57  38  48 E5        29.94F
MARION         PTCLDY    51  37  58 E7        29.96F
LANCASTER      MOCLDY    57  42  57 E6        29.93F
ZANESVILLE     CLOUDY    57  39  51 E7        29.95F
NEW PHILLY     CLOUDY    55  37  50 CALM      30.00F
$$



USA.gov is the U.S. government's official web portal to all federal, state and local government web resources and services.